STARLINK-36087, 66854

Orbit data source: Space-Track

STARLINK-36087, 66854 is a payload satellite owned by SpaceX/Seattle (US) in LEO that was launched on Tue, 02 Dec 2025 UTC via an FALCON 9 launch vehicle from the Air Force Eastern Test Range (AFETR). Payload-class satellites include a variety of spacecraft equipped with specific instruments for various scientific and technological missions. These include communications satellites like Starlink; space stations such as the ISS; scientific satellites like the Hubble; Earth observation satellites from companies like Planet Labs, Umbra, and HawkEye 360; GPS; miniature CubeSats for education and research; and military/defense satellites.

Loading next visibility...
Identifier
66854, 2025-281G
Orbit
LEO
Country
Flag of USUS
Related business
Manufacturer
SpaceX/Seattle
Mission
Operational Commercial Communications
Bus & Motor
STARLINK V2MO, Unknown motor
Mass
575 kg wet, ~530 kg dry
Launch date (UTC)
2025-12-02 (7 months ago)
Launch vehicle
FALCON 9
Launch site
Air Force Eastern Test Range (AFETR)
Object type
Payload
Rocket body
Debris
Shape & HBR
Box + 2 Pan, 17.7 m
Radar Cross Section
36.964 m², Large (>1 m²)

Expand to show TLE details & history
Last TLE update: 14 hours ago

TLE from 14 hours ago
0 STARLINK-36087
1 66854U 25281G   26171.25038160  .00012523  00000-0  46347-3 0  9999
2 66854  43.0020 124.0263 0001067 259.0760 100.9971 15.27604192 31874
Epoch: 2026-06-20T06:00Z
TLE epoch observation values (Epoch: 2026-06-20T06:00:32.970Z)
Latitude
-0.00005°
Longitude
125.42117°
Altitude
482.892 km
Speed
7.626 km/s
True Right ascension
08h 16m 06s
True Declination
0° 00' 00"
Sunlit
Object was in daylight at epoch
Visualization orbit readout
Latitude
Unknown
Longitude
Unknown
Altitude
Unknown
Speed
Unknown
Apparent Right ascension
Unknown
Apparent Declination
Unknown
Sunlit
N/A
Visualization observer readout
Local Sidereal Time
07:15:06
Azimuth
Unknown
Elevation
Unknown
Doppler factor
Unknown
Orbital elements
Apogee altitude
485.654 km
Perigee altitude
484.189 km
Semi-major axis
6,863.059 km
Eccentricity
0.00011
Inclination
43.002°
RAAN
124.0263°
Arg. of periapsis
259.076°
True anomaly
101.0091°
Mean anomaly
100.9971°
Eccentric anomaly
101.0031°
Mean motion
3.81739 °/min
Orbital period
94.31 mins
BSTAR
0.00046347
Loading maneuver chart data...
Computing Atmospheric mass density...
Loading historical data...
Loading historical data...
Loading historical data...
Loading historical data...
Loading historical data...
Loading historical data...
Loading historical data...

Documentation

Showing up to 5 results
|